Overview Statistics Trail Chart Weather Telemetry Raw packets
 

This is the latest recevied weather packets stored in our database for station/object NW0017. If no packets are shown the sender has not sent any weather packets the latest 10 day(s).

<< 374 375 376 377 378 379 380 >>
Time Temp. Humidity Pressure Rain* Wind** Luminosity Snow
1776929487 34.44° C 59% 1004 hPa 0 mm - 693 W/m² -
1776929426 33.89° C 58% 1004 hPa 0 mm - 695 W/m² -
1776929366 33.89° C 57% 1004 hPa 0 mm - 698 W/m² -
1776929306 33.89° C 58% 1004 hPa 0 mm - 709 W/m² -
1776929246 33.89° C 60% 1004.1 hPa 0 mm - 710 W/m² -
1776929186 33.89° C 59% 1004.1 hPa 0 mm - 710 W/m² -
1776929126 33.89° C 56% 1004.1 hPa 0 mm - 715 W/m² -
1776929066 33.89° C 59% 1004.1 hPa 0 mm - 717 W/m² -
1776929006 33.89° C 59% 1004.2 hPa 0 mm - 725 W/m² -
1776928946 33.89° C 59% 1004.2 hPa 0 mm - 732 W/m² -
1776928888 33.89° C 59% 1004.2 hPa 0 mm - 737 W/m² -
1776928826 33.89° C 61% 1004.2 hPa 0 mm - 726 W/m² -
1776928766 34.44° C 61% 1004.2 hPa 0 mm - 727 W/m² -
1776928706 34.44° C 60% 1004.3 hPa 0 mm - 731 W/m² -
1776928646 34.44° C 60% 1004.3 hPa 0 mm - 739 W/m² -
1776928586 33.89° C 61% 1004.3 hPa 0 mm - 747 W/m² -
1776928526 33.89° C 63% 1004.3 hPa 0 mm - 746 W/m² -
1776928466 33.89° C 64% 1004.3 hPa 0 mm - 750 W/m² -
1776928406 33.89° C 64% 1004.3 hPa 0 mm - 749 W/m² -
1776928346 33.89° C 64% 1004.3 hPa 0 mm - 754 W/m² -
1776928286 33.89° C 63% 1004.4 hPa 0 mm - 757 W/m² -
1776928226 33.89° C 61% 1004.4 hPa 0 mm - 755 W/m² -
1776928204 33.89° C 61% 1004.4 hPa 0 mm - 760 W/m² -
1776928166 33.89° C 61% 1004.4 hPa 0 mm - 760 W/m² -
1776928106 34.44° C 62% 1004.4 hPa 0 mm - 761 W/m² -

* Rain latest hour (hover to see other rain measurements)
** Current wind speed in m/s (hover to see current wind gust speed)